Location: Newark
(7.1028°S, 35.3258°W)
Time: 07:54:17
(UTC+00:00)

Vanguard 3 - Pass Details

Date: 27 February 2020
Orbit: 508 x 3263 km, 33.4° (Epoch: 08 April)

Event Time Altitude Azimuth Distance (km) Brightness Sun altitude
Rises 05:34:18 0° 236° (SW) 4,855 - -42.5°
Reaches altitude 10° 05:38:15 10° 236° (SW) 3,409 - -41.5°
Maximum altitude 05:46:06 88° 321° (NW) 869 - -39.7°
Drops below altitude 10° 05:50:44 10° 54° (NE) 2,054 - -38.6°
Exits shadow 05:51:46 - 55° (NE) 2,472 10.0 -38.3°
Sets 05:52:37 0° 55° (NE) 2,812 10.4 -38.1°
